[[{"header":{"parameterUnit":"m.s-1","parameterCategory":1,"la1":30.2991,"la2":30.254,"lo1":-89.0895,"lo2":-89.0444,"dy":0.0017,"dx":0.0017,"nx":28,"ny":28,"refTime":"2024-09-25T09:00:00:Z","depth":0,"parameterNumber":2,"parameterNumberName":"U-component_of_WINDS"},"data":[0,0,0,0,0,0,0,0,0,0,0,0,0,0,0,0,0,0,0,0,0,0,0,0,0,0,0,0,0,0,0,0,0,0,0,0,0,0,0,0,0,0,0,0,0,0,0,0,0,0,0,0,0,0,0,0,0,0,1.0939,1.0939,0,1.0913,1.0913,1.0913,1.0904,1.0904,1.0904,1.0904,1.0875,1.0874,1.0873,0,0,0,0,0,0,0,0,0,0,0,0,0,1.0979,1.0979,1.0939,1.0939,1.0939,1.0913,1.0913,1.0913,1.0904,1.0904,1.0904,1.0904,1.0875,1.0874,1.0873,0,0,0,0,0,0,0,0,0,0,0,0,0,1.0958,1.0978,1.0939,1.0931,1.093,1.0913,1.0913,1.0912,1.0904,1.0904,1.0904,1.0904,1.0876,1.0874,1.0873,1.0861,0,0,1.0869,1.0869,0,0,0,0,0,0,0,0,1.096,1.0957,1.0933,1.0932,1.0931,1.0912,1.0916,1.0895,1.0904,1.0914,1.0904,1.0905,1.0887,1.0885,1.088,1.086,1.0859,1.0869,1.0868,1.0868,1.0867,0,0,0,0,0,0,0,1.0961,1.0958,1.0929,1.0932,1.0931,1.0928,1.0926,1.0912,1.09,1.0913,1.0912,1.0909,1.0887,1.0881,1.0879,1.0858,1.0869,1.0868,1.0867,1.0867,1.0829,1.0828,0,0,0,0,0,0,1.0964,1.0959,1.093,1.0928,1.0946,1.0927,1.0924,1.0918,1.09,1.0897,1.0909,1.0909,1.0883,1.088,1.0878,1.0863,1.0868,1.0866,1.0866,1.0829,1.0828,1.0828,0,0,0,0,0,0,1.0965,1.0962,1.0931,1.0943,1.0939,1.0927,1.0919,1.0917,1.0912,1.0897,1.0895,1.0906,1.0883,1.088,1.0866,1.0862,1.0866,1.0865,1.0829,1.0829,1.0828,1.0834,0,0,0,0,0,0,1.0966,1.0962,1.0958,1.0943,1.0939,1.092,1.0919,1.0917,1.091,1.0909,1.0893,1.0891,1.0883,1.0868,1.0865,1.086,1.0864,1.0829,1.0829,1.0828,1.0834,1.0834,1.0833,0,0,0,0,0,1.0968,1.096,1.0958,1.0954,1.0933,1.092,1.0917,1.0909,1.0909,1.0905,1.0896,1.0891,1.0863,1.0867,1.0863,1.0858,1.0829,1.0829,1.0829,1.0834,1.0834,1.0833,0,0,0,0,0,0,1.0973,1.0958,1.0955,1.0942,1.0933,1.0918,1.0912,1.0909,1.0898,1.0897,1.0887,1.0884,1.0871,1.0863,1.0867,1.0846,1.0846,1.0845,1.0851,1.0851,1.0851,1.0853,1.0862,0,0,0,0,0,1.0972,1.0963,1.095,1.094,1.0936,1.0925,1.0919,1.0913,1.0902,1.0898,1.0888,1.0876,1.0865,1.0858,1.0846,1.0833,1.0829,1.0828,1.0827,1.0827,1.0826,1.0819,1.0818,1.0827,1.0827,1.0827,0,0,1.0971,1.0962,1.0957,1.0941,1.0933,1.0923,1.0921,1.0911,1.0903,1.0896,1.0883,1.0875,1.0862,1.0848,1.0842,1.0841,1.0823,1.0827,1.0827,1.0826,1.0818,1.0817,1.0817,1.0826,1.0826,1.0826,0,0,1.0965,1.0957,1.0948,1.094,1.0928,1.0921,1.0919,1.0906,1.0901,1.0887,1.0882,1.0872,1.0853,1.0844,1.0837,1.0828,1.0823,1.0824,1.0823,1.0816,1.0815,1.0814,1.0811,1.081,1.0823,1.0823,1.0823,0,1.0965,1.0951,1.0944,1.0934,1.0927,1.0921,1.0912,1.0904,1.0889,1.0884,1.0884,1.086,1.085,1.0835,1.0833,1.0827,1.0824,1.0826,1.0816,1.0815,1.0814,1.0811,1.081,1.0824,1.0823,1.0823,1.0823,0,1.0952,1.0942,1.0936,1.0923,1.0915,1.0906,1.0896,1.089,1.0885,1.0878,1.0865,1.0854,1.084,1.0836,1.0831,1.082,1.082,1.0818,1.0818,1.0814,1.0811,1.0809,1.0824,1.0824,1.0824,1.0824,0,0,1.0947,1.093,1.0928,1.0922,1.0909,1.0901,1.0891,1.0879,1.0873,1.0863,1.0854,1.0838,1.0837,1.0829,1.0823,1.0817,1.0811,1.0816,1.0815,1.0815,1.0797,1.0799,1.0797,1.0808,1.0808,1.0807,1.0798,0,1.0938,1.0921,1.0915,1.0901,1.0892,1.0886,1.0878,1.0868,1.0862,1.0853,1.0845,1.0834,1.0833,1.0828,1.0822,1.0813,1.0807,1.0813,1.0799,1.0798,1.0802,1.0796,1.0797,1.0789,1.0797,1.0797,1.0797,0,1.0926,1.0917,1.0902,1.0891,1.0887,1.0879,1.0868,1.0859,1.0849,1.0844,1.0836,1.0831,1.082,1.0821,1.0805,1.081,1.0803,1.0798,1.0798,1.0796,1.0797,1.0793,1.0786,1.0785,1.0795,1.0795,1.0795,0,1.0924,1.0908,1.0897,1.0892,1.0879,1.0873,1.0867,1.0857,1.085,1.084,1.0836,1.0824,1.0817,1.0808,1.08,1.0801,1.0785,1.0785,1.0781,1.0781,1.0777,1.0777,1.0769,1.0773,1.0773,1.0773,1.0774,0,1.0915,1.0906,1.0896,1.089,1.088,1.0872,1.0862,1.0856,1.0847,1.0838,1.0832,1.0824,1.0814,1.0804,1.0798,1.0786,1.0783,1.0779,1.0777,1.0779,1.0779,1.0774,1.0775,1.0773,1.0773,1.0773,1.0773,0,1.0911,1.0904,1.0892,1.088,1.0877,1.087,1.086,1.0853,1.0847,1.0836,1.0833,1.0822,1.0811,1.0802,1.0787,1.0782,1.077,1.0768,1.0774,1.0773,1.0768,1.0769,1.0756,1.0754,1.0761,1.076,1.076,0,1.0906,1.0899,1.0887,1.0882,1.0876,1.0867,1.086,1.0853,1.0846,1.0834,1.0828,1.0817,1.0807,1.079,1.078,1.0768,1.0766,1.0762,1.0764,1.0767,1.0766,1.0766,1.0765,1.0762,1.0762,1.0762,1.0762,0,1.0897,1.0894,1.0885,1.0876,1.0869,1.086,1.0852,1.0847,1.0838,1.0831,1.082,1.0813,1.0798,1.0786,1.0774,1.0767,1.0763,1.0762,1.076,1.0762,1.0765,1.0763,1.0773,1.0762,1.0762,1.0762,1.0762,1.0762,1.0892,1.0886,1.0877,1.0868,1.0861,1.0853,1.0846,1.0839,1.083,1.0819,1.0814,1.0803,1.0793,1.0776,1.0769,1.0759,1.0759,1.0756,1.0756,1.0755,1.0755,1.0767,1.0757,1.0757,1.0757,1.0757,1.0757,0,1.0883,1.0877,1.0869,1.0858,1.085,1.0848,1.0839,1.0833,1.0823,1.0814,1.0805,1.0793,1.0782,1.0772,1.076,1.0755,1.0752,1.0752,1.0752,1.075,1.0756,1.0759,1.0754,1.0754,1.0754,1.0754,1.0754,1.0754,1.0877,1.0867,1.0863,1.085,1.0844,1.0833,1.0828,1.0821,1.0814,1.0801,1.0792,1.0786,1.0776,1.0764,1.0754,1.0751,1.0747,1.0747,1.0744,1.0749,1.075,1.075,1.0753,1.0746,1.0746,1.0739,1.0738,1.0738]},{"header":{"parameterUnit":"m.s-1","parameterCategory":1,"la1":30.2991,"la2":30.254,"lo1":-89.0895,"lo2":-89.0444,"dy":0.0017,"dx":0.0017,"nx":28,"ny":28,"refTime":"2024-09-25T09:00:00:Z","depth":0,"parameterNumber":3,"parameterNumberName":"V-component_of_WINDS"},"data":[0,0,0,0,0,0,0,0,0,0,0,0,0,0,0,0,0,0,0,0,0,0,0,0,0,0,0,0,0,0,0,0,0,0,0,0,0,0,0,0,0,0,0,0,0,0,0,0,0,0,0,0,0,0,0,0,0,0,-0.6108,-0.6109,0,-0.618,-0.618,-0.6181,-0.6197,-0.6197,-0.6196,-0.6196,-0.6271,-0.6274,-0.6276,0,0,0,0,0,0,0,0,0,0,0,0,0,-0.5989,-0.5991,-0.6108,-0.6109,-0.611,-0.6179,-0.618,-0.6181,-0.6197,-0.6197,-0.6196,-0.6195,-0.6271,-0.6273,-0.6276,0,0,0,0,0,0,0,0,0,0,0,0,0,-0.6049,-0.5992,-0.6108,-0.6126,-0.6128,-0.6179,-0.6181,-0.6182,-0.6197,-0.6197,-0.6196,-0.6195,-0.627,-0.6273,-0.6277,-0.6316,0,0,-0.6288,-0.629,0,0,0,0,0,0,0,0,-0.6045,-0.6053,-0.6123,-0.6125,-0.6128,-0.6179,-0.6166,-0.6227,-0.6198,-0.6171,-0.6196,-0.6195,-0.6241,-0.6247,-0.6263,-0.6319,-0.6322,-0.6289,-0.6291,-0.6293,-0.6294,0,0,0,0,0,0,0,-0.6041,-0.605,-0.6137,-0.6124,-0.6127,-0.6132,-0.6139,-0.6178,-0.621,-0.6173,-0.6175,-0.6183,-0.6243,-0.6259,-0.6264,-0.6324,-0.6289,-0.6292,-0.6294,-0.6296,-0.6418,-0.6419,0,0,0,0,0,0,-0.6033,-0.6047,-0.6134,-0.6139,-0.6084,-0.6135,-0.6143,-0.6163,-0.6209,-0.6216,-0.6183,-0.6183,-0.6253,-0.626,-0.6267,-0.6317,-0.6293,-0.6296,-0.6298,-0.6417,-0.6418,-0.6419,0,0,0,0,0,0,-0.6031,-0.6041,-0.6131,-0.6093,-0.6105,-0.6137,-0.616,-0.6165,-0.6181,-0.6217,-0.6223,-0.6194,-0.6253,-0.6262,-0.6304,-0.632,-0.6298,-0.6301,-0.6416,-0.6417,-0.6418,-0.6416,0,0,0,0,0,0,-0.6027,-0.604,-0.6054,-0.6093,-0.6107,-0.6166,-0.6161,-0.6167,-0.6187,-0.6188,-0.6228,-0.6235,-0.6253,-0.6298,-0.6307,-0.6325,-0.6304,-0.6414,-0.6416,-0.6418,-0.6415,-0.6417,-0.6419,0,0,0,0,0,-0.6023,-0.6051,-0.6055,-0.6065,-0.6125,-0.6167,-0.6175,-0.6194,-0.6188,-0.6204,-0.6227,-0.6233,-0.6316,-0.6302,-0.6313,-0.6331,-0.6413,-0.6416,-0.6418,-0.6414,-0.6417,-0.6419,0,0,0,0,0,0,-0.6013,-0.6056,-0.6061,-0.6102,-0.6131,-0.6169,-0.6189,-0.6196,-0.6227,-0.6227,-0.625,-0.626,-0.63,-0.632,-0.6303,-0.6372,-0.6365,-0.6369,-0.6358,-0.6361,-0.6363,-0.6358,-0.6307,0,0,0,0,0,-0.6016,-0.6045,-0.6081,-0.6114,-0.6128,-0.6156,-0.6175,-0.6187,-0.6218,-0.623,-0.6257,-0.6287,-0.632,-0.6342,-0.6374,-0.6417,-0.6428,-0.6436,-0.6438,-0.6439,-0.6443,-0.647,-0.6474,-0.6426,-0.6426,-0.6426,0,0,-0.6022,-0.6049,-0.6066,-0.6113,-0.6136,-0.6167,-0.6166,-0.6198,-0.6222,-0.6236,-0.6277,-0.6297,-0.6333,-0.6376,-0.6397,-0.6394,-0.6459,-0.6442,-0.6443,-0.6447,-0.6473,-0.6477,-0.6481,-0.6428,-0.6427,-0.6427,0,0,-0.6049,-0.6071,-0.6102,-0.6125,-0.6161,-0.6179,-0.6187,-0.6224,-0.6238,-0.628,-0.6291,-0.632,-0.6376,-0.6402,-0.6422,-0.6459,-0.6467,-0.6469,-0.6481,-0.6507,-0.6511,-0.6514,-0.6529,-0.6534,-0.6473,-0.6473,-0.6473,0,-0.6052,-0.6098,-0.6117,-0.6149,-0.617,-0.6183,-0.6215,-0.6238,-0.6282,-0.6297,-0.6293,-0.6365,-0.6389,-0.644,-0.6449,-0.6464,-0.6475,-0.6465,-0.6508,-0.6512,-0.6516,-0.653,-0.6536,-0.6473,-0.6473,-0.6473,-0.6473,0,-0.6101,-0.6133,-0.6153,-0.6195,-0.6219,-0.6251,-0.6276,-0.6298,-0.6308,-0.6328,-0.6371,-0.6401,-0.6441,-0.6453,-0.6464,-0.6506,-0.6503,-0.6503,-0.6497,-0.652,-0.6534,-0.654,-0.6473,-0.6473,-0.6473,-0.6473,0,0,-0.6123,-0.6176,-0.6184,-0.6204,-0.6244,-0.627,-0.6303,-0.6341,-0.636,-0.639,-0.642,-0.6468,-0.6468,-0.6491,-0.6505,-0.6527,-0.6557,-0.6525,-0.6527,-0.6532,-0.6607,-0.6608,-0.6614,-0.6562,-0.6563,-0.6564,-0.6605,0,-0.6156,-0.6215,-0.6234,-0.6284,-0.6315,-0.6328,-0.6357,-0.6386,-0.6405,-0.6435,-0.6456,-0.649,-0.6488,-0.6502,-0.6525,-0.6549,-0.6573,-0.6546,-0.6592,-0.6593,-0.6584,-0.6621,-0.6621,-0.6658,-0.661,-0.6611,-0.6612,0,-0.6202,-0.6233,-0.6286,-0.6324,-0.6338,-0.6363,-0.6401,-0.6428,-0.6462,-0.6475,-0.6501,-0.6513,-0.655,-0.654,-0.6592,-0.6573,-0.6593,-0.6608,-0.661,-0.6616,-0.6605,-0.663,-0.667,-0.6676,-0.662,-0.662,-0.6619,0,-0.6216,-0.6271,-0.631,-0.6326,-0.6371,-0.6389,-0.6409,-0.6441,-0.6464,-0.6496,-0.6511,-0.6548,-0.6568,-0.6597,-0.662,-0.661,-0.6671,-0.6662,-0.6684,-0.6683,-0.6697,-0.6696,-0.6742,-0.6707,-0.6707,-0.6707,-0.6707,0,-0.6251,-0.6283,-0.6317,-0.6341,-0.6378,-0.6399,-0.6436,-0.6456,-0.6485,-0.6515,-0.6529,-0.6556,-0.6584,-0.6615,-0.6633,-0.6675,-0.6684,-0.6696,-0.6701,-0.6696,-0.6694,-0.671,-0.6709,-0.6708,-0.6708,-0.6708,-0.6707,0,-0.6273,-0.6296,-0.634,-0.6378,-0.6389,-0.6415,-0.6449,-0.6474,-0.6493,-0.6531,-0.6541,-0.6572,-0.6611,-0.6636,-0.6684,-0.6697,-0.6742,-0.6746,-0.6731,-0.6733,-0.6754,-0.6752,-0.6814,-0.6823,-0.678,-0.678,-0.678,0,-0.6294,-0.6319,-0.6361,-0.6382,-0.6401,-0.6434,-0.6456,-0.6479,-0.6502,-0.6543,-0.6564,-0.6602,-0.6635,-0.6695,-0.6724,-0.6761,-0.6767,-0.6786,-0.6773,-0.6767,-0.6769,-0.6768,-0.6771,-0.6788,-0.6788,-0.6789,-0.6789,0,-0.6331,-0.6342,-0.6373,-0.6409,-0.6436,-0.6466,-0.6495,-0.6512,-0.654,-0.6566,-0.6604,-0.663,-0.6679,-0.6719,-0.6759,-0.6781,-0.6791,-0.6793,-0.68,-0.6796,-0.6787,-0.6794,-0.6738,-0.6791,-0.6791,-0.6791,-0.6791,-0.6791,-0.6355,-0.6378,-0.6411,-0.6447,-0.6471,-0.6499,-0.6525,-0.6548,-0.658,-0.6623,-0.6634,-0.6675,-0.671,-0.6765,-0.6788,-0.6821,-0.6819,-0.6829,-0.6832,-0.6835,-0.6836,-0.678,-0.6828,-0.6828,-0.6828,-0.6828,-0.6828,0,-0.6393,-0.6415,-0.6448,-0.6489,-0.6517,-0.6522,-0.6556,-0.658,-0.6615,-0.6646,-0.6678,-0.6724,-0.6762,-0.6793,-0.6833,-0.6854,-0.6859,-0.6864,-0.6863,-0.6869,-0.6834,-0.6825,-0.6859,-0.6859,-0.6859,-0.6859,-0.6859,-0.6859,-0.6417,-0.6458,-0.6472,-0.6526,-0.6548,-0.6588,-0.6607,-0.6633,-0.6658,-0.6709,-0.674,-0.676,-0.6792,-0.6834,-0.687,-0.6878,-0.6893,-0.6897,-0.6906,-0.6874,-0.6871,-0.6868,-0.6859,-0.69,-0.69,-0.6938,-0.6939,-0.6939]}]]